Location: Monrovia
(34.7865°N, 86.7139°W)
Time: 20:44:56
(UTC+00:00)

Meteor 1-28 Rocket - Pass Details

Date: 14 July 2020
Orbit: 505 x 522 km, 97.3° (Epoch: 08 August)

Event Time Altitude Azimuth Distance (km) Brightness Sun altitude
Exits shadow 08:51:06 40° 165° (SSE) 762 3.7 -19.5°
Maximum altitude 08:52:22 86° 80° (E) 513 3.1 -19.3°
Drops below altitude 10° 08:56:06 10° 350° (N) 1,730 6.3 -18.8°
Sets 08:58:12 0° 350° (N) 2,623 7.3 -18.5°
